User: anonymous   Login
Location: Bethera
(33.2010°N, 79.7880°W)
Time: 18:18:31
(UTC-04:00)
Language:

Cosmos 1833 Rocket - Orbit

View from above orbital plane
View from above orbital plane
View from above satellite
View from above satellite

Ground track
Ground track

The orbit data is extracted from the following two-line orbital elements,

1 17590U 87027B   16274.65480643 +.00000094 +00000-0 +70832-4 0  9999
2 17590 071.0045 336.4803 0006285 319.1407 040.9245 14.16730368527135
Epoch (UTC): 30 September 2016 15:42:55
Eccentricity: 0.0006285
inclination: 71.0045°
perigee height: 832 km
apogee height: 841 km
right ascension of ascending node: 336.4803°
argument of perigee: 319.1407°
revolutions per day: 14.16730368
mean anomaly at epoch: 40.9245°
orbit number at epoch: 52713

The dashed part of the orbit path shows where the satellite is in the earth's shadow,  

DLR